QPF
0.11 0.12 0.10 0.07 0.06 0.06 0.08 0.12 0.16 0.16 0.14 0.12 0.09 0.10 0.10 0.09 0.06 0.04 0.03 0.04 0.03 0.02 0.02 0.03 0.03 0.02 0.02 0.02 0.02 0.02 0.02 0.02 0.02 0.02 0.02 0.02 0.02 0.03
0.12 0.12 0.12 0.09 0.09 0.09 0.09 0.11 0.13 0.15 0.13 0.08 0.07 0.08 0.09 0.08 0.08 0.07 0.06 0.08 0.07 0.05 0.04 0.04 0.04 0.03 0.03 0.03 0.02 0.02 0.02 0.02 0.02 0.02 0.02 0.03 0.02 0.02
0.12 0.11 0.11 0.12 0.11 0.10 0.11 0.11 0.12 0.14 0.14 0.10 0.12 0.12 0.11 0.11 0.11 0.09 0.06 0.06 0.07 0.08 0.06 0.05 0.05 0.03 0.03 0.03 0.04 0.04 0.04 0.03 0.03 0.03 0.03 0.03 0.03 0.03
0.15 0.16 0.15 0.13 0.14 0.13 0.13 0.11 0.11 0.13 0.14 0.12 0.12 0.12 0.11 0.10 0.10 0.10 0.08 0.06 0.07 0.09 0.09 0.08 0.08 0.08 0.08 0.07 0.06 0.06 0.04 0.04 0.03 0.03 0.03 0.03 0.02 0.03
0.16 0.15 0.14 0.12 0.12 0.11 0.10 0.10 0.10 0.12 0.16 0.15 0.13 0.13 0.12 0.10 0.10 0.10 0.09 0.09 0.09 0.11 0.10 0.09 0.09 0.09 0.09 0.08 0.06 0.05 0.04 0.03 0.03 0.03 0.03 0.03 0.02 0.02
0.10 0.10 0.11 0.10 0.11 0.12 0.11 0.12 0.13 0.15 0.17 0.17 0.14 0.11 0.11 0.11 0.11 0.10 0.11 0.11 0.12 0.13 0.13 0.11 0.10 0.09 0.07 0.06 0.05 0.05 0.05 0.05 0.05 0.04 0.04 0.03 0.03 0.03
0.09 0.08 0.07 0.08 0.09 0.09 0.08 0.08 0.09 0.11 0.13 0.13 0.10 0.08 0.09 0.10 0.10 0.10 0.10 0.10 0.11 0.10 0.10 0.10 0.09 0.08 0.08 0.07 0.07 0.07 0.06 0.06 0.05 0.05 0.04 0.04 0.03 0.03
0.08 0.08 0.07 0.07 0.06 0.05 0.05 0.05 0.07 0.08 0.09 0.10 0.10 0.09 0.08 0.10 0.13 0.14 0.14 0.13 0.14 0.13 0.12 0.14 0.13 0.12 0.09 0.08 0.08 0.07 0.06 0.05 0.05 0.04 0.04 0.03 0.03 0.02
0.07 0.07 0.05 0.04 0.04 0.04 0.04 0.05 0.05 0.05 0.05 0.06 0.08 0.09 0.10 0.12 0.15 0.16 0.16 0.17 0.16 0.14 0.12 0.11 0.10 0.09 0.09 0.08 0.07 0.05 0.05 0.04 0.03 0.03 0.02 0.02 0.02 0.02
0.04 0.04 0.04 0.03 0.03 0.03 0.03 0.02 0.02 0.02 0.04 0.05 0.06 0.07 0.08 0.11 0.13 0.13 0.14 0.12 0.10 0.08 0.07 0.07 0.07 0.07 0.06 0.05 0.05 0.04 0.04 0.03 0.03 0.03 0.03 0.03 0.04 0.04
0.02 0.02 0.02 0.02 0.02 0.02 0.02 0.02 0.02 0.02 0.03 0.03 0.03 0.03 0.04 0.05 0.06 0.08 0.09 0.09 0.08 0.07 0.06 0.05 0.05 0.05 0.04 0.04 0.03 0.03 0.03 0.03 0.03 0.03 0.04 0.04 0.04 0.04
0.02 0.01 0.01 0.01 0.01 0.01 0.01 0.01 0.01 0.02 0.02 0.02 0.02 0.02 0.02 0.03 0.03 0.04 0.04 0.05 0.05 0.05 0.05 0.04 0.04 0.04 0.04 0.03 0.03 0.03 0.03 0.03 0.03 0.03 0.04 0.04 0.04 0.03
0.02 0.02 0.01 0.01 0.01 0.01 0.00 0.01 0.01 0.01 0.02 0.02 0.02 0.02 0.02 0.02 0.02 0.02 0.03 0.03 0.04 0.03 0.03 0.04 0.04 0.04 0.04 0.04 0.03 0.03 0.02 0.03 0.03 0.04 0.04 0.04 0.03 0.02
0.02 0.01 0.01 0.01 0.01 0.01 0.01 0.01 0.01 0.01 0.01 0.02 0.01 0.01 0.01 0.02 0.02 0.02 0.02 0.02 0.03 0.03 0.03 0.03 0.03 0.03 0.03 0.03 0.03 0.03 0.03 0.03 0.03 0.04 0.04 0.03 0.02 0.02
0.02 0.03 0.03 0.02 0.01 0.01 0.02 0.02 0.02 0.01 0.01 0.01 0.01 0.01 0.01 0.01 0.01 0.02 0.01 0.01 0.01 0.02 0.02 0.02 0.02 0.02 0.03 0.03 0.03 0.04 0.04 0.04 0.04 0.04 0.04 0.03 0.02 0.01
0.03 0.03 0.03 0.03 0.03 0.03 0.03 0.03 0.02 0.02 0.02 0.01 0.01 0.01 0.01 0.01 0.01 0.01 0.01 0.01 0.01 0.02 0.02 0.02 0.02 0.02 0.03 0.03 0.03 0.03 0.03 0.04 0.04 0.04 0.04 0.03 0.02 0.01
0.04 0.04 0.04 0.04 0.04 0.04 0.04 0.04 0.03 0.03 0.02 0.01 0.01 0.01 0.01 0.02 0.02 0.02 0.02 0.02 0.02 0.02 0.02 0.02 0.02 0.02 0.02 0.02 0.02 0.02 0.02 0.03 0.03 0.03 0.04 0.04 0.03 0.02
0.04 0.04 0.05 0.05 0.06 0.06 0.04 0.03 0.02 0.01 0.01 0.01 0.01 0.01 0.01 0.01 0.01 0.02 0.02 0.02 0.01 0.01 0.01 0.01 0.01 0.01 0.01 0.01 0.01 0.01 0.01 0.01 0.02 0.02 0.02 0.03 0.03 0.02
0.03 0.04 0.05 0.05 0.04 0.03 0.02 0.01 0.01 0.01 0.01 0.01 0.01 0.02 0.02 0.02 0.02 0.02 0.02 0.02 0.02 0.01 0.01 0.01 0.01 0.01 0.01 0.01 0.01 0.01 0.01 0.01 0.01 0.01 0.01 0.02 0.02 0.01
0.01 0.02 0.02 0.02 0.02 0.02 0.02 0.02 0.03 0.03 0.03 0.03 0.03 0.03 0.03 0.02 0.02 0.02 0.02 0.02 0.02 0.01 0.01 0.01 0.01 0.00 0.00 0.00 0.00 0.00 0.00 0.00 0.01 0.01 0.01 0.01 0.01 0.00
0.01 0.01 0.01 0.02 0.02 0.03 0.03 0.03 0.04 0.04 0.03 0.03 0.03 0.02 0.02 0.01 0.01 0.01 0.01 0.01 0.01 0.01 0.01 0.00 0.00 0.00 0.00 0.00 0.01 0.01 0.00 0.00 0.00 0.00 0.00 0.00 0.00 0.01
0.01 0.01 0.01 0.02 0.02 0.02 0.02 0.02 0.02 0.02 0.02 0.02 0.02 0.02 0.01 0.01 0.01 0.00 0.00 0.00 0.00 0.00 0.00 0.00 0.00 0.00 0.00 0.01 0.01 0.00 0.00 0.00 0.00 0.00 0.00 0.00 0.00 0.00
0.01 0.01 0.01 0.01 0.01 0.01 0.02 0.02 0.02 0.01 0.01 0.01 0.01 0.01 0.00 0.00 0.00 0.00 0.00 0.00 0.00 0.00 0.00 0.00 0.00 0.00 0.00 0.00 0.00 0.00 0.00 0.00 0.00 0.00 0.00 0.00 0.00 0.00
MSLP
1015.95 1016.17 1016.45 1016.77 1017.10 1017.40 1017.66 1017.84 1017.93 1017.94 1017.87 1017.74 1017.58 1017.41 1017.26 1017.16 1017.13 1017.17 1017.28 1017.49 1017.76 1018.11 1018.50 1018.93 1019.38 1019.84 1020.30 1020.75 1021.19 1021.62 1022.03 1022.44 1022.83 1023.19 1023.53 1023.82 1024.05 1024.23
1015.12 1015.30 1015.56 1015.88 1016.24 1016.62 1016.97 1017.27 1017.50 1017.65 1017.71 1017.70 1017.64 1017.55 1017.45 1017.37 1017.33 1017.36 1017.46 1017.64 1017.90 1018.24 1018.63 1019.07 1019.54 1020.03 1020.51 1021.00 1021.47 1021.92 1022.36 1022.78 1023.18 1023.54 1023.87 1024.14 1024.37 1024.52
1014.36 1014.47 1014.67 1014.96 1015.32 1015.73 1016.14 1016.53 1016.87 1017.15 1017.35 1017.48 1017.54 1017.56 1017.55 1017.54 1017.56 1017.63 1017.76 1017.96 1018.24 1018.60 1019.02 1019.48 1019.98 1020.49 1020.99 1021.48 1021.96 1022.41 1022.83 1023.23 1023.60 1023.94 1024.23 1024.48 1024.67 1024.80
1013.79 1013.81 1013.93 1014.15 1014.47 1014.86 1015.28 1015.72 1016.14 1016.51 1016.83 1017.08 1017.27 1017.41 1017.52 1017.62 1017.74 1017.89 1018.10 1018.38 1018.72 1019.14 1019.61 1020.11 1020.64 1021.17 1021.68 1022.17 1022.62 1023.04 1023.42 1023.77 1024.08 1024.36 1024.60 1024.80 1024.95 1025.06
1013.52 1013.43 1013.45 1013.59 1013.83 1014.16 1014.56 1014.99 1015.43 1015.86 1016.25 1016.59 1016.88 1017.14 1017.37 1017.59 1017.83 1018.11 1018.43 1018.82 1019.26 1019.76 1020.30 1020.87 1021.43 1021.98 1022.49 1022.96 1023.37 1023.73 1024.05 1024.32 1024.56 1024.76 1024.94 1025.08 1025.21 1025.30
1013.60 1013.42 1013.35 1013.39 1013.54 1013.79 1014.12 1014.50 1014.91 1015.33 1015.74 1016.13 1016.49 1016.83 1017.16 1017.50 1017.87 1018.27 1018.72 1019.23 1019.79 1020.39 1021.01 1021.63 1022.23 1022.79 1023.30 1023.73 1024.09 1024.38 1024.62 1024.81 1024.96 1025.09 1025.20 1025.30 1025.38 1025.46
1014.05 1013.81 1013.67 1013.63 1013.69 1013.85 1014.09 1014.38 1014.72 1015.08 1015.46 1015.83 1016.21 1016.60 1017.00 1017.42 1017.89 1018.40 1018.97 1019.59 1020.25 1020.94 1021.63 1022.30 1022.93 1023.49 1023.97 1024.36 1024.66 1024.88 1025.04 1025.15 1025.22 1025.28 1025.33 1025.39 1025.45 1025.51
1014.81 1014.55 1014.38 1014.29 1014.28 1014.36 1014.50 1014.69 1014.93 1015.21 1015.50 1015.83 1016.17 1016.55 1016.97 1017.44 1017.97 1018.55 1019.20 1019.89 1020.62 1021.37 1022.10 1022.79 1023.42 1023.96 1024.41 1024.75 1024.99 1025.14 1025.23 1025.27 1025.28 1025.28 1025.29 1025.32 1025.37 1025.43
1015.77 1015.55 1015.39 1015.29 1015.25 1015.26 1015.32 1015.42 1015.55 1015.72 1015.92 1016.15 1016.43 1016.77 1017.16 1017.62 1018.16 1018.77 1019.44 1020.16 1020.91 1021.66 1022.39 1023.06 1023.66 1024.16 1024.55 1024.84 1025.02 1025.12 1025.15 1025.14 1025.12 1025.09 1025.08 1025.09 1025.13 1025.20
1016.81 1016.67 1016.56 1016.49 1016.45 1016.43 1016.44 1016.46 1016.50 1016.57 1016.66 1016.81 1017.00 1017.26 1017.59 1018.01 1018.51 1019.09 1019.73 1020.42 1021.13 1021.84 1022.51 1023.13 1023.66 1024.09 1024.42 1024.65 1024.78 1024.83 1024.83 1024.80 1024.76 1024.73 1024.71 1024.73 1024.77 1024.85
1017.82 1017.77 1017.74 1017.71 1017.70 1017.68 1017.66 1017.64 1017.62 1017.61 1017.62 1017.68 1017.79 1017.97 1018.23 1018.58 1019.01 1019.51 1020.08 1020.70 1021.32 1021.94 1022.52 1023.04 1023.48 1023.83 1024.08 1024.25 1024.34 1024.37 1024.36 1024.33 1024.29 1024.27 1024.27 1024.30 1024.35 1024.43
1018.71 1018.74 1018.78 1018.81 1018.84 1018.84 1018.82 1018.78 1018.73 1018.68 1018.64 1018.64 1018.68 1018.80 1018.99 1019.26 1019.61 1020.02 1020.50 1021.00 1021.51 1022.01 1022.47 1022.87 1023.20 1023.46 1023.65 1023.76 1023.82 1023.84 1023.83 1023.82 1023.81 1023.81 1023.84 1023.88 1023.95 1024.03
1019.44 1019.52 1019.61 1019.69 1019.74 1019.77 1019.77 1019.74 1019.69 1019.62 1019.57 1019.54 1019.55 1019.63 1019.76 1019.97 1020.24 1020.57 1020.94 1021.32 1021.71 1022.08 1022.41 1022.70 1022.93 1023.10 1023.22 1023.29 1023.33 1023.35 1023.36 1023.38 1023.40 1023.43 1023.49 1023.55 1023.62 1023.70
1019.99 1020.09 1020.19 1020.28 1020.35 1020.40 1020.42 1020.41 1020.38 1020.34 1020.30 1020.28 1020.29 1020.35 1020.46 1020.62 1020.83 1021.08 1021.36 1021.64 1021.92 1022.17 1022.39 1022.57 1022.71 1022.81 1022.87 1022.92 1022.95 1022.98 1023.02 1023.06 1023.12 1023.18 1023.26 1023.33 1023.41 1023.48
1020.38 1020.45 1020.53 1020.61 1020.68 1020.73 1020.77 1020.78 1020.78 1020.78 1020.77 1020.78 1020.81 1020.88 1020.99 1021.14 1021.31 1021.51 1021.71 1021.92 1022.11 1022.27 1022.40 1022.50 1022.58 1022.63 1022.66 1022.69 1022.73 1022.78 1022.83 1022.90 1022.98 1023.07 1023.15 1023.23 1023.29 1023.34
1020.65 1020.66 1020.68 1020.72 1020.77 1020.82 1020.86 1020.90 1020.93 1020.96 1021.00 1021.05 1021.12 1021.21 1021.33 1021.47 1021.63 1021.80 1021.96 1022.11 1022.25 1022.35 1022.43 1022.49 1022.53 1022.56 1022.58 1022.61 1022.65 1022.71 1022.78 1022.86 1022.96 1023.04 1023.12 1023.19 1023.23 1023.26
1020.81 1020.75 1020.71 1020.70 1020.72 1020.75 1020.79 1020.84 1020.90 1020.97 1021.05 1021.13 1021.23 1021.35 1021.48 1021.63 1021.78 1021.93 1022.08 1022.21 1022.31 1022.40 1022.46 1022.50 1022.53 1022.56 1022.59 1022.62 1022.67 1022.74 1022.81 1022.89 1022.97 1023.05 1023.10 1023.14 1023.16 1023.16
1020.89 1020.77 1020.68 1020.63 1020.62 1020.64 1020.68 1020.74 1020.82 1020.91 1021.01 1021.11 1021.23 1021.36 1021.50 1021.64 1021.79 1021.93 1022.07 1022.19 1022.30 1022.39 1022.46 1022.52 1022.56 1022.60 1022.64 1022.69 1022.74 1022.80 1022.86 1022.92 1022.97 1023.01 1023.03 1023.02 1023.00 1022.96
1020.90 1020.75 1020.64 1020.58 1020.56 1020.58 1020.63 1020.70 1020.79 1020.88 1020.99 1021.10 1021.21 1021.33 1021.45 1021.58 1021.71 1021.84 1021.98 1022.10 1022.22 1022.33 1022.43 1022.51 1022.59 1022.66 1022.71 1022.77 1022.81 1022.85 1022.89 1022.90 1022.91 1022.89 1022.85 1022.80 1022.72 1022.64
1020.88 1020.74 1020.65 1020.60 1020.60 1020.64 1020.70 1020.78 1020.87 1020.97 1021.06 1021.15 1021.24 1021.32 1021.41 1021.51 1021.62 1021.73 1021.86 1021.99 1022.12 1022.26 1022.39 1022.51 1022.61 1022.70 1022.78 1022.83 1022.86 1022.88 1022.86 1022.83 1022.77 1022.68 1022.58 1022.46 1022.33 1022.20
1020.85 1020.76 1020.72 1020.72 1020.76 1020.83 1020.92 1021.02 1021.11 1021.20 1021.27 1021.32 1021.37 1021.40 1021.45 1021.50 1021.57 1021.66 1021.77 1021.90 1022.05 1022.20 1022.36 1022.51 1022.65 1022.76 1022.84 1022.88 1022.89 1022.87 1022.80 1022.70 1022.57 1022.42 1022.24 1022.06 1021.87 1021.68
1020.83 1020.82 1020.85 1020.92 1021.03 1021.15 1021.28 1021.39 1021.49 1021.56 1021.60 1021.62 1021.61 1021.59 1021.58 1021.58 1021.60 1021.66 1021.75 1021.87 1022.02 1022.20 1022.37 1022.54 1022.70 1022.82 1022.90 1022.93 1022.91 1022.84 1022.72 1022.55 1022.35 1022.13 1021.89 1021.64 1021.39 1021.16
1020.86 1020.93 1021.05 1021.19 1021.36 1021.54 1021.71 1021.85 1021.95 1022.01 1022.03 1022.00 1021.95 1021.88 1021.81 1021.76 1021.74 1021.75 1021.82 1021.93 1022.07 1022.25 1022.43 1022.61 1022.77 1022.88 1022.95 1022.96 1022.91 1022.79 1022.62 1022.40 1022.14 1021.86 1021.56 1021.26 1020.96 1020.69
Thickness
5743 5742 5740 5740 5740 5739 5737 5733 5724 5717 5715 5718 5718 5718 5717 5714 5712 5709 5706 5704 5701 5698 5695 5692 5689 5686 5683 5680 5677 5675 5672 5670 5668 5666 5664 5662 5660 5658
5741 5739 5737 5737 5736 5735 5734 5731 5728 5721 5713 5713 5712 5712 5711 5708 5704 5701 5699 5696 5693 5690 5687 5683 5680 5678 5675 5672 5669 5666 5664 5661 5659 5656 5654 5652 5650 5648
5737 5735 5733 5732 5730 5729 5728 5726 5723 5719 5711 5708 5706 5705 5703 5700 5697 5694 5691 5688 5684 5681 5678 5675 5672 5668 5665 5662 5659 5656 5654 5651 5648 5646 5643 5641 5639 5636
5731 5729 5727 5727 5724 5723 5721 5720 5718 5716 5710 5703 5699 5697 5695 5693 5690 5687 5683 5679 5675 5671 5668 5666 5662 5659 5655 5651 5648 5645 5643 5640 5637 5635 5632 5629 5627 5624
5725 5723 5721 5719 5717 5716 5715 5713 5711 5710 5706 5700 5694 5691 5687 5685 5681 5678 5675 5671 5667 5662 5658 5655 5652 5648 5644 5640 5637 5634 5631 5629 5626 5623 5620 5617 5614 5611
5720 5717 5715 5713 5711 5710 5708 5705 5704 5701 5698 5694 5688 5684 5680 5677 5673 5669 5664 5661 5658 5655 5650 5645 5641 5638 5633 5629 5625 5622 5619 5616 5614 5611 5607 5604 5601 5599
5712 5710 5707 5705 5704 5702 5700 5698 5696 5693 5690 5686 5680 5675 5671 5667 5664 5661 5656 5652 5647 5644 5640 5635 5631 5627 5622 5618 5614 5610 5607 5604 5601 5598 5594 5591 5588 5586
5703 5701 5699 5696 5694 5692 5690 5688 5686 5683 5680 5677 5672 5666 5662 5658 5655 5652 5647 5642 5636 5633 5629 5625 5621 5616 5611 5606 5602 5599 5595 5592 5589 5585 5582 5579 5576 5573
5695 5692 5691 5688 5685 5683 5680 5678 5675 5672 5670 5666 5661 5656 5652 5649 5645 5641 5636 5632 5627 5623 5619 5614 5611 5606 5601 5596 5592 5588 5584 5581 5577 5573 5570 5566 5563 5560
5685 5683 5679 5677 5675 5673 5670 5666 5662 5659 5658 5655 5650 5646 5643 5639 5636 5632 5627 5623 5618 5613 5610 5604 5600 5595 5591 5586 5582 5577 5573 5570 5566 5562 5558 5555 5552 5549
5675 5672 5670 5666 5664 5662 5660 5655 5650 5646 5643 5641 5638 5634 5631 5628 5624 5621 5616 5612 5606 5601 5597 5593 5589 5585 5580 5575 5571 5567 5563 5559 5555 5551 5547 5544 5541 5538
5666 5662 5659 5656 5653 5651 5648 5644 5639 5636 5633 5629 5625 5622 5618 5615 5612 5608 5605 5600 5596 5590 5585 5582 5578 5574 5569 5566 5562 5557 5552 5548 5544 5540 5536 5533 5530 5526
5658 5653 5648 5645 5642 5640 5637 5633 5629 5625 5623 5620 5615 5611 5607 5603 5599 5595 5592 5588 5584 5578 5574 5571 5567 5563 5559 5556 5553 5548 5544 5540 5535 5531 5526 5522 5519 5515
5649 5643 5638 5634 5631 5629 5625 5622 5619 5616 5613 5610 5606 5601 5596 5591 5587 5583 5579 5576 5573 5568 5564 5560 5556 5552 5548 5545 5541 5539 5535 5532 5527 5523 5518 5514 5510 5506
5637 5632 5627 5623 5620 5618 5614 5611 5608 5606 5603 5599 5594 5589 5585 5581 5576 5572 5568 5565 5562 5558 5555 5551 5547 5543 5539 5535 5532 5529 5525 5522 5518 5514 5510 5506 5502 5499
5626 5620 5617 5614 5610 5607 5603 5600 5597 5594 5591 5587 5583 5579 5575 5571 5567 5563 5559 5556 5552 5548 5544 5541 5537 5533 5529 5526 5523 5519 5516 5512 5509 5505 5501 5497 5494 5492
5616 5612 5608 5605 5601 5597 5594 5590 5587 5584 5580 5576 5572 5569 5565 5562 5558 5554 5550 5547 5543 5538 5535 5532 5528 5525 5521 5517 5513 5510 5507 5504 5500 5496 5492 5489 5487 5485
5608 5604 5600 5597 5593 5589 5585 5581 5577 5573 5569 5566 5562 5559 5555 5552 5549 5545 5541 5537 5534 5530 5527 5523 5520 5516 5512 5509 5505 5501 5498 5495 5492 5489 5485 5481 5479 5477
5599 5595 5591 5587 5584 5580 5576 5572 5567 5563 5559 5556 5553 5549 5546 5542 5539 5535 5532 5528 5525 5521 5518 5515 5511 5506 5501 5498 5496 5493 5489 5487 5484 5481 5478 5475 5472 5471
5590 5587 5582 5578 5575 5571 5567 5562 5558 5554 5551 5547 5543 5540 5536 5533 5530 5526 5523 5518 5515 5512 5510 5507 5503 5499 5494 5490 5488 5486 5484 5481 5478 5475 5473 5471 5468 5466
5583 5579 5575 5571 5567 5562 5558 5553 5550 5546 5542 5538 5534 5531 5527 5524 5521 5518 5515 5510 5507 5505 5502 5499 5496 5493 5490 5487 5483 5481 5480 5477 5474 5471 5468 5465 5462 5461
5575 5572 5567 5564 5559 5555 5550 5546 5542 5538 5533 5529 5526 5523 5520 5517 5514 5511 5508 5505 5502 5499 5496 5494 5491 5488 5485 5481 5479 5477 5476 5474 5471 5468 5465 5461 5457 5455
5568 5564 5560 5556 5552 5547 5543 5539 5535 5531 5526 5522 5519 5515 5512 5510 5507 5505 5502 5499 5496 5493 5490 5487 5485 5482 5480 5477 5475 5473 5472 5470 5468 5465 5462 5461 5458 5455